Regional Weather Roundup
Issued by NWS

Home | Current Version | Previous Version | Graphics & Text | Print | Product List | Glossary On
Versions: 1 2 3 4 5 6 7 8 9 10 11 12 13 14 15 16 17 18 19 20 21 22 23 24 25 26 27 28 29 30 31 32 33 34 35 36 37 38 39 40 41 42 43 44 45 46 47 48 49 50
741
ASUS43 KLSX 120507
RWRMO

WEATHER SUMMARY FOR MISSOURI
NATIONAL WEATHER SERVICE SPRINGFIELD MO
1100 PM CST THU FEB 11 2016

NOTE: "FAIR" INDICATES FEW OR NO CLOUDS BELOW 12,000 FEET WITH NO
       SIGNIFICANT WEATHER AND/OR OBSTRUCTIONS TO VISIBILITY.
       CURRENT SKY AND/OR WEATHER CONDITIONS ARE NOT AVAILABLE FOR
       CHILLICOTHE AND FARMINGTON.

MOZ001>031-035>038-043-044-053-054-120600-
...NORTHERN AND WESTERN MISSOURI...

CITY           SKY/WX    TMP DP  RH WIND       PRES   REMARKS
KANSAS CTY INT PTCLDY    28  20  71 E7        30.17F WCI  21
KANSAS C DTWN  PTCLDY    31  21  66 E6        30.18F WCI  25
LEE`S SUMMIT   PTCLDY    29  20  69 E6        30.17F WCI  23
ST JOSEPH      CLOUDY    31  20  63 E5        30.20R WCI  26
CHILLICOTHE      N/A     27  15  61 E5        30.22F WCI  22
KIRKSVILLE     CLOUDY    23  12  62 E6        30.23S WCI  16

$$
MOZ066>068-077>081-088>096-101>105-120600-
...SOUTHWEST MISSOURI...

CITY           SKY/WX    TMP DP  RH WIND       PRES   REMARKS
SPRINGFIELD    CLOUDY    37  23  56 SW5       30.16S
JOPLIN         PTCLDY    34  22  61 N6        30.20R WCI  29

$$
MOZ032>034-039>042-045>050-055>058-069>072-120600-
...CENTRAL MISSOURI...

CITY           SKY/WX    TMP DP  RH WIND       PRES   REMARKS
COLUMBIA       LGT SNOW  26  23  88 E8        30.21S FOG     WCI  18
JEFFERSON CITY FLURRIES  27  23  85 E8        30.22F WCI  19
ROLLA          CLOUDY    29  19  66 E8        30.18S WCI  21
SEDALIA        PTCLDY    30  21  69 E6        30.19R WCI  24
WHITEMAN AFB   MOCLDY    29  21  72 NE1       30.18S
WARRENSBURG    CLOUDY    30  21  69 NE5       30.19F WCI  25
OSAGE BEACH    CLOUDY    34  18  51 SE13      30.13F WCI  25

$$
MOZ051-052-059>065-120600-
...EAST CENTRAL MISSOURI...

CITY           SKY/WX    TMP DP  RH WIND       PRES   REMARKS
ST LOUIS INTL  CLOUDY    29  13  51 SE5       30.27S WCI  24
SPIRIT OF STL  CLOUDY    28  12  51 SE3       30.25F
ST CHARLES     CLOUDY    27  16  63 E5        30.27S WCI  22

$$
MOZ072>076-082>087-097>100-106>115-120600-
...SOUTH CENTRAL AND SOUTHEAST MISSOURI...

CITY           SKY/WX    TMP DP  RH WIND       PRES   REMARKS
CAPE GIRARDEAU CLOUDY    32  20  61 E10       30.20F WCI  24
FARMINGTON     CLOUDY    28  19  69 CALM      30.24R
POPLAR BLUFF   CLOUDY    32  22  66 CALM      30.22F
WEST PLAINS    CLOUDY    33  19  56 S6        30.18S WCI  28

$$



USA.gov is the U.S. government's official web portal to all federal, state and local government web resources and services.